Tracking 19219 objects as of 20-Jul-2018
HD Live streaming from Space Station
objects crossing your sky now

CP5

Track CP5 now!
10-day predictions
CP5 is classified as:


NORAD ID: 38763
Int'l Code: 2012-048F
Perigee: 481.5 km
Apogee: 707.0 km
Inclination: 64.7 °
Period: 96.4 minutes
Semi major axis: 6965 km
RCS: Unknown
Launch date: September 13, 2012
Source: United States (US)
Launch site: AIR FORCE WESTERN TEST RANGE (AFWTR)
Uplink (MHz):
Downlink (MHz): 437.405
Beacon (MHz): 437.405
Mode: 1200bps AFSK CW
Call sign: CP5
Status: Inactive

aabbcc
Your satellite tracking list
Your tracking list is empty




NASA's NSSDC Master Catalog

Two Line Element Set (TLE):
1 38763U 12048F   18200.38656508 +.00000390 +00000-0 +43393-4 0 03985
2 38763 064.6698 248.5272 0161863 339.5282 019.9258 14.93467843058955
Source of the keplerian elements: Caltech